Terug naar catalogus

USA 112

ActiefMilitairHEO
NORAD 23609·PAYLOAD·🇺🇸 United States

Gelanceerd Jul 10, 1995 vanaf Cape Canaveral Space Force Station

Loading…

Volgende Passages (komende 24 uur)

TLE

VersSource: Mike McCants

Epoch: Sep 14, 2026, 21:41 UTC

1 23609U 95034A   26257.90377370 -.00000572  00000-0  00000-0 0    07
2 23609  63.3156 101.9757 6930099 270.4766  17.3281  2.00591770  4573

Volg USA 112 in realtime met AllMySat

Download on the App Store